Weather History for KBDN - January, 2013

Change the Weather History Date:

Saturday, January 5, 2013

  Actual Average (KRDM) Record (KRDM)
Temperature  
Mean Temperature 22 °F 32 °F  
Max Temperature 28 °F 41 °F 58 °F (1999)
Min Temperature 17 °F 22 °F -11 °F (1974)
Degree Days  
Heating Degree Days 42 34  
Month to date heating degree days 170  
Since 1 July heating degree days 3010  
Cooling Degree Days 0 0  
Month to date cooling degree days 0  
Year to date cooling degree days 0  
Moisture  
Dew Point 12 °F    
Average Humidity 61    
Maximum Humidity 74    
Minimum Humidity 43    
Precipitation  
Precipitation 0.00 in 0.04 in 0.27 in (2010)
Month to date precipitation 0.18  
Year to date precipitation 0.18  
Sea Level Pressure  
Sea Level Pressure 30.18 in    
Wind  
Wind Speed 3 mph (SE)    
Max Wind Speed 7 mph    
Max Gust Speed -    
Visibility 9 miles    
Events Snow    
T = Trace of Precipitation, MM = Missing Value Source: NWS Daily Summary

Daily Weather History Graph

Daily Weather History Graph

Search for Another Location

Airport or City:

Trip Planner

Search our weather history database for the weather conditions in past years. The results will help you decide how hot, cold, wet, or windy it might be!

Date:

Astronomy

Jan. 05, 2013 Rise Set
Actual Time 7:39 AM PST 4:41 PM PST
Civil Twilight 7:06 AM PST 5:14 PM PST
Nautical Twilight 6:30 AM PST 5:50 PM PST
Astronomical Twilight 5:55 AM PST 6:25 PM PST
Moon 12:44 AM PST 11:40 AM PST
Length of Visible Light 10h 07m
Length of Day
9h 01m
Last Quarter, 43% of the Moon is Illuminated
Jan 5
Last Quarter
Jan 11
New
Jan 18
First Quarter
Jan 26
Full
Feb 3
Last Quarter

Hourly Weather History & Observations

Time (PST) Temp. Windchill Dew Point Humidity Pressure Visibility Wind Dir Wind Speed Gust Speed Precip Events Conditions
12:15 AM 23.0 °F 17.0 °F 8.6 °F 54% 30.22 in 10.0 mi SSE 4.6 mph - N/A   Clear
12:35 AM 19.4 °F 12.8 °F 8.6 °F 63% 30.22 in 10.0 mi SSE 4.6 mph - N/A   Partly Cloudy
12:55 AM 21.2 °F 16.4 °F 8.6 °F 58% 30.22 in 10.0 mi SE 3.5 mph - N/A   Scattered Clouds
1:15 AM 21.2 °F 16.4 °F 8.6 °F 58% 30.22 in 10.0 mi SSE 3.5 mph - N/A   Mostly Cloudy
1:35 AM 19.4 °F 14.3 °F 8.6 °F 63% 30.21 in 10.0 mi SSE 3.5 mph - N/A   Partly Cloudy
1:55 AM 17.6 °F - 6.8 °F 63% 30.21 in 10.0 mi Calm Calm - N/A   Clear
2:15 AM 17.6 °F 10.7 °F 8.6 °F 68% 30.22 in 10.0 mi SE 4.6 mph - N/A   Clear
2:35 AM 19.4 °F 11.5 °F 8.6 °F 63% 30.22 in 10.0 mi SSE 5.8 mph - N/A   Clear
2:55 AM 19.4 °F 14.3 °F 8.6 °F 63% 30.22 in 10.0 mi SE 3.5 mph - N/A   Clear
3:15 AM 19.4 °F 11.5 °F 8.6 °F 63% 30.22 in 10.0 mi SE 5.8 mph - N/A   Clear
3:35 AM 19.4 °F 11.5 °F 6.8 °F 58% 30.21 in 10.0 mi SE 5.8 mph - N/A   Clear
3:55 AM 19.4 °F 12.8 °F 6.8 °F 58% 30.21 in 10.0 mi ESE 4.6 mph - N/A   Clear
4:15 AM 21.2 °F 16.4 °F 6.8 °F 54% 30.20 in 10.0 mi SE 3.5 mph - N/A   Clear
4:35 AM 21.2 °F - 6.8 °F 54% 30.20 in 10.0 mi Calm Calm - N/A   Clear
4:55 AM 21.2 °F - 6.8 °F 54% 30.20 in 10.0 mi Calm Calm - N/A   Clear
5:15 AM 19.4 °F 12.8 °F 8.6 °F 63% 30.20 in 10.0 mi South 4.6 mph - N/A   Mostly Cloudy
5:35 AM 21.2 °F - 6.8 °F 54% 30.20 in 10.0 mi Calm Calm - N/A   Mostly Cloudy
5:55 AM 21.2 °F - 8.6 °F 58% 30.19 in 10.0 mi Calm Calm - N/A   Overcast
6:15 AM 21.2 °F - 8.6 °F 58% 30.20 in 10.0 mi Calm Calm - N/A   Overcast
6:35 AM 21.2 °F - 8.6 °F 58% 30.20 in 10.0 mi Calm Calm - N/A   Mostly Cloudy
6:55 AM 21.2 °F - 8.6 °F 58% 30.20 in 10.0 mi Calm Calm - N/A   Partly Cloudy
7:15 AM 21.2 °F - 6.8 °F 54% 30.20 in 10.0 mi Calm Calm - N/A   Clear
7:55 AM 23.0 °F - 8.6 °F 54% 30.20 in 10.0 mi Calm Calm - N/A   Scattered Clouds
8:15 AM 23.0 °F 18.4 °F 6.8 °F 50% 30.20 in 10.0 mi ESE 3.5 mph - N/A   Clear
8:55 AM 23.0 °F - 6.8 °F 50% 30.21 in 10.0 mi Calm Calm - N/A   Partly Cloudy
9:15 AM 24.8 °F - 6.8 °F 46% 30.21 in 10.0 mi Calm Calm - N/A   Partly Cloudy
9:35 AM 24.8 °F - 6.8 °F 46% 30.22 in 10.0 mi Calm Calm - N/A   Scattered Clouds
9:55 AM 24.8 °F - 6.8 °F 46% 30.22 in 10.0 mi Calm Calm - N/A   Partly Cloudy
10:15 AM 26.6 °F - 6.8 °F 43% 30.22 in 10.0 mi Calm Calm - N/A   Clear
10:35 AM 26.6 °F 21.2 °F 6.8 °F 43% 30.22 in 10.0 mi SE 4.6 mph - N/A   Clear
10:55 AM 28.4 °F 23.3 °F 8.6 °F 43% 30.21 in 10.0 mi East 4.6 mph - N/A   Clear
11:15 AM 28.4 °F - 8.6 °F 43% 30.21 in 10.0 mi Calm Calm - N/A   Partly Cloudy
11:35 AM 28.4 °F 23.3 °F 8.6 °F 43% 30.20 in 10.0 mi ESE 4.6 mph - N/A   Clear
11:55 AM 28.4 °F 23.3 °F 8.6 °F 43% 30.19 in 10.0 mi ESE 4.6 mph - N/A   Mostly Cloudy
12:15 PM 28.4 °F 22.2 °F 8.6 °F 43% 30.19 in 10.0 mi SE 5.8 mph - N/A   Scattered Clouds
12:35 PM 28.4 °F 21.2 °F 10.4 °F 47% 30.19 in 10.0 mi ESE 6.9 mph - N/A   Clear
12:55 PM 26.6 °F 19.1 °F 15.8 °F 64% 30.18 in 3.0 mi ESE 6.9 mph - N/A Snow Light Snow
1:15 PM 26.6 °F 19.1 °F 15.8 °F 64% 30.17 in 5.0 mi East 6.9 mph - N/A Snow Light Snow
1:35 PM 26.6 °F 19.1 °F 17.6 °F 69% 30.16 in 5.0 mi ESE 6.9 mph - N/A Snow Light Snow
1:55 PM 26.6 °F 21.2 °F 17.6 °F 69% 30.16 in 6.0 mi ESE 4.6 mph - N/A Snow Light Snow
2:15 PM 26.6 °F 19.1 °F 17.6 °F 69% 30.15 in 4.0 mi SE 6.9 mph - N/A Snow Light Snow
2:35 PM 26.6 °F 22.6 °F 17.6 °F 69% 30.15 in 5.0 mi ESE 3.5 mph - N/A Snow Light Snow
2:55 PM 28.4 °F - 19.4 °F 69% 30.16 in 5.0 mi Calm Calm - N/A Snow Light Snow
3:15 PM 26.6 °F 19.1 °F 19.4 °F 74% 30.15 in 4.0 mi ESE 6.9 mph - N/A Snow Light Snow
3:35 PM 26.6 °F - 19.4 °F 74% 30.16 in 10.0 mi Calm Calm - N/A   Mostly Cloudy
3:55 PM 26.6 °F 20.0 °F 19.4 °F 74% 30.15 in 10.0 mi ESE 5.8 mph - N/A   Mostly Cloudy
4:15 PM 26.6 °F 22.6 °F 19.4 °F 74% 30.15 in 10.0 mi ESE 3.5 mph - N/A   Scattered Clouds
4:35 PM 26.6 °F - 19.4 °F 74% 30.15 in 4.0 mi Calm Calm - N/A   Clear
4:55 PM 26.6 °F - 19.4 °F 74% 30.15 in 10.0 mi Calm Calm - N/A   Clear
5:15 PM 26.6 °F - 19.4 °F 74% 30.15 in 10.0 mi Calm Calm - N/A   Scattered Clouds
5:55 PM 26.6 °F 20.0 °F 19.4 °F 74% 30.15 in 9.0 mi ESE 5.8 mph - N/A   Clear
6:15 PM 26.6 °F 20.0 °F 17.6 °F 69% 30.15 in 10.0 mi ESE 5.8 mph - N/A   Clear
6:35 PM 26.6 °F 22.6 °F 17.6 °F 69% 30.16 in 10.0 mi ESE 3.5 mph - N/A   Scattered Clouds
6:55 PM 26.6 °F 22.6 °F 17.6 °F 69% 30.15 in 10.0 mi East 3.5 mph - N/A   Mostly Cloudy
7:15 PM 26.6 °F 22.6 °F 17.6 °F 69% 30.15 in 10.0 mi ESE 3.5 mph - N/A   Mostly Cloudy
7:35 PM 26.6 °F - 17.6 °F 69% 30.15 in 10.0 mi Calm Calm - N/A   Scattered Clouds
7:55 PM 26.6 °F - 17.6 °F 69% 30.16 in 10.0 mi Calm Calm - N/A   Partly Cloudy
8:15 PM 26.6 °F - 17.6 °F 69% 30.16 in 10.0 mi Calm Calm - N/A   Clear
8:35 PM 26.6 °F - 17.6 °F 69% 30.16 in 10.0 mi Calm Calm - N/A   Clear
8:55 PM 26.6 °F 21.2 °F 15.8 °F 64% 30.15 in 10.0 mi SE 4.6 mph - N/A   Partly Cloudy
9:15 PM 26.6 °F 19.1 °F 15.8 °F 64% 30.14 in 10.0 mi SE 6.9 mph - N/A   Clear
9:35 PM 26.6 °F 22.6 °F 15.8 °F 64% 30.15 in 10.0 mi SSE 3.5 mph - N/A   Clear
9:55 PM 24.8 °F 16.9 °F 15.8 °F 69% 30.15 in 10.0 mi SE 6.9 mph - N/A   Clear
10:15 PM 24.8 °F 16.9 °F 15.8 °F 69% 30.14 in 10.0 mi SE 6.9 mph - N/A   Clear
10:35 PM 24.8 °F 19.1 °F 15.8 °F 69% 30.15 in 10.0 mi SE 4.6 mph - N/A   Clear
10:55 PM 24.8 °F 19.1 °F 15.8 °F 69% 30.15 in 10.0 mi SE 4.6 mph - N/A   Clear
11:15 PM 24.8 °F 19.1 °F 15.8 °F 69% 30.15 in 10.0 mi ESE 4.6 mph - N/A   Clear
11:35 PM 24.8 °F 17.9 °F 15.8 °F 69% 30.14 in 10.0 mi SE 5.8 mph - N/A   Clear
11:55 PM 23.0 °F - 14.0 °F 68% 30.14 in 10.0 mi Calm Calm - N/A   Clear